Knoxville, TN

8:59 PM EDT on September 19, 2019 (GMT -0400)
McGhee Tyson

Weather History for KTYS - August, 2019

Change the Weather History Date:

Sunday, August 25, 2019

  Actual Average Record
Temperature  
Mean Temperature 73 °F 77 °F  
Max Temperature 79 °F 87 °F 99 °F (1943)
Min Temperature 67 °F 67 °F 53 °F (1891)
Degree Days  
Heating Degree Days 0 0  
Month to date heating degree days 0 0  
Since 1 June heating degree days 0 4  
Since 1 July heating degree days 0 0  
Cooling Degree Days 8 12  
Month to date cooling degree days 376 322  
Year to date cooling degree days 1397 1206  
Since 1 June cooling degree days 1097 1044  
Growing Degree Days 23 (Base 50)    
Moisture  
Dew Point 66 °F    
Average Humidity 79    
Maximum Humidity 97    
Minimum Humidity 66    
Precipitation  
Precipitation 1.21 in 0.09 in 1.44 in (1941)
Month to date precipitation 1.87 2.75  
Year to date precipitation 46.97 33.08  
Snow  
Snow 0.00 in 0.00 in - ()
Month to date snowfall 0.0 0.0  
Since 1 June snowfall 0.0 0.0  
Since 1 July snowfall 0.0 0.0  
Snow Depth 0.00 in    
Sea Level Pressure  
Sea Level Pressure 30.03 in    
Wind  
Wind Speed 6 mph ()    
Max Wind Speed 12 mph    
Max Gust Speed 13 mph    
Visibility 8.5 miles    
Events Rain    
T = Trace of Precipitation, MM = Missing Value Source: Averaged Metar Reports

Daily Weather History Graph

Daily Weather History Graph

Search for Another Location

Airport or City:

Astronomy

Aug. 25, 2019 Rise Set
Actual Time 7:02 AM EDT 8:13 PM EDT
Civil Twilight 6:35 AM EDT 8:39 PM EDT
Nautical Twilight 6:04 AM EDT 9:11 PM EDT
Astronomical Twilight 5:31 AM EDT 9:43 PM EDT
Moon 1:42 AM EDT (8/25) 4:26 PM EDT (8/25)
Length of Visible Light 14h 03m
Length of Day
13h 10m
Waning Crescent, 29% of the Moon is Illuminated
Aug 25
Waning Crescent
Aug 30
New
Sep 5
First Quarter
Sep 14
Full
Sep 21
Last Quarter

Hourly Weather History & Observations

Time (EDT) Temp. Dew Point Humidity Pressure Visibility Wind Dir Wind Speed Gust Speed Precip Events Conditions
12:53 AM 72.0 °F 64.9 °F 78% 30.04 in 10.0 mi ENE 10.4 mph - N/A   Clear
1:53 AM 71.1 °F 64.0 °F 78% 30.03 in 10.0 mi NE 8.1 mph - N/A   Overcast
2:48 AM 69.8 °F 62.6 °F 78% 30.06 in 10.0 mi NE 10.4 mph - N/A   Overcast
2:53 AM 70.0 °F 63.0 °F 78% 30.03 in 10.0 mi NE 9.2 mph - N/A   Overcast
3:53 AM 69.1 °F 63.0 °F 81% 30.01 in 10.0 mi NE 9.2 mph - N/A   Overcast
4:53 AM 68.0 °F 62.1 °F 81% 30.01 in 10.0 mi NE 9.2 mph - N/A   Overcast
5:53 AM 68.0 °F 62.1 °F 81% 30.02 in 10.0 mi NE 5.8 mph - N/A   Overcast
6:53 AM 68.0 °F 62.1 °F 81% 30.03 in 10.0 mi NE 8.1 mph - N/A   Overcast
7:53 AM 68.0 °F 61.0 °F 78% 30.05 in 10.0 mi NE 6.9 mph - N/A   Overcast
8:53 AM 69.1 °F 61.0 °F 75% 30.05 in 10.0 mi NE 8.1 mph - N/A   Overcast
9:53 AM 71.1 °F 62.1 °F 73% 30.06 in 10.0 mi NE 6.9 mph - N/A   Overcast
10:53 AM 73.0 °F 63.0 °F 71% 30.07 in 10.0 mi NE 4.6 mph - N/A   Overcast
11:40 AM 75.0 °F 64.0 °F 69% 30.09 in 10.0 mi NNE 3.5 mph - N/A   Overcast
11:53 AM 75.0 °F 64.0 °F 69% 30.06 in 10.0 mi ENE 4.6 mph - N/A   Overcast
12:43 PM 75.9 °F 64.9 °F 69% 30.08 in 10.0 mi Calm Calm - N/A   Overcast
12:53 PM 75.9 °F 64.9 °F 69% 30.05 in 10.0 mi Calm Calm - N/A   Overcast
1:53 PM 75.9 °F 64.9 °F 69% 30.04 in 10.0 mi North 5.8 mph - N/A   Overcast
2:53 PM 77.0 °F 66.0 °F 69% 30.02 in 10.0 mi Calm Calm - N/A   Overcast
3:00 PM 77.0 °F 66.0 °F 69% 30.05 in 10.0 mi North 3.5 mph - N/A   Overcast
3:53 PM 78.1 °F 66.0 °F 66% 30.00 in 10.0 mi NNW 4.6 mph - N/A   Overcast
4:53 PM 79.0 °F 66.9 °F 66% 29.98 in 10.0 mi North 8.1 mph - N/A   Overcast
5:53 PM 78.1 °F 66.9 °F 68% 29.99 in 10.0 mi North 5.8 mph - N/A   Overcast
6:25 PM 78.1 °F 66.9 °F 68% 30.01 in 10.0 mi North 4.6 mph - N/A   Overcast
6:53 PM 78.1 °F 66.9 °F 68% 29.99 in 10.0 mi NNW 4.6 mph - N/A   Overcast
7:37 PM 73.0 °F 69.1 °F 87% 30.02 in 2.0 mi South 8.1 mph - N/A Rain Heavy Rain
7:43 PM 72.0 °F 69.1 °F 91% 30.03 in 1.0 mi South 6.9 mph - 0.05 in Rain Heavy Rain
7:53 PM 71.1 °F 69.1 °F 93% 30.01 in 0.8 mi South 5.8 mph - 0.26 in Rain Heavy Rain
8:27 PM 71.1 °F 70.0 °F 96% 30.03 in 1.2 mi Calm Calm - 0.70 in Rain Heavy Rain
8:36 PM 70.0 °F 69.1 °F 97% 30.03 in 2.0 mi North 3.5 mph - 0.80 in Rain Heavy Rain
8:53 PM 71.1 °F 69.1 °F 93% 30.01 in 8.0 mi NE 3.5 mph - 0.90 in Rain Light Rain
9:37 PM 72.0 °F 70.0 °F 93% 30.04 in 8.0 mi Calm Calm - 0.00 in Rain Light Rain
9:53 PM 71.1 °F 70.0 °F 96% 30.02 in 5.0 mi ESE 3.5 mph - 0.01 in Rain Light Rain
10:53 PM 71.1 °F 69.1 °F 93% 30.02 in 10.0 mi Calm Calm - 0.04 in   Overcast
11:53 PM 71.1 °F 69.1 °F 93% 30.02 in 10.0 mi ESE 3.5 mph - N/A   Overcast